Regional Weather Roundup
Issued by NWS

Home | Current Version | Previous Version | Text Only | Print | Product List | Glossary Off
Versions: 1 2 3 4 5 6 7 8 9 10 11 12 13 14 15 16 17 18 19 20 21 22 23 24 25 26 27 28 29 30 31 32 33 34 35 36 37 38 39 40 41 42 43 44 45 46 47 48 49 50

000
ASUS43 KIND 161509
RWRIN

WEATHER ROUNDUP FOR INDIANA
NATIONAL WEATHER SERVICE INDIANAPOLIS IN
1100 AM EDT TUE SEP 16 2014

NOTE: "FAIR" INDICATES FEW OR NO CLOUDS BELOW 12,000 FEET WITH NO
SIGNIFICANT WEATHER AND/OR OBSTRUCTIONS TO VISIBILITY.

* - STATION DOES NOT REPORT WEATHER SUCH AS PRECIPITATION OR FOG.

+ - STATION NOT QUALITY CONTROLLED BY THE NATIONAL WEATHER SERVICE.
    USE DATA WITH CAUTION...ESPECIALLY DEWPOINT AND RELATIVE
    HUMIDITY OBSERVATIONS.

INZ001>003-010>013-019-020-161600-
NORTHWEST INDIANA

CITY           SKY/WX    TMP DP  RH WIND       PRES   REMARKS
GARY /AIRPORT/ MOSUNNY   61  50  67 W7        30.22R
KNOX *+        SUNNY     58  48  71 E3        30.20S
LA PORTE +     SUNNY     58  50  76 S3        30.21S
MICHIGAN CITY+ CLOUDY    59  50  72 S6        30.21S
MONTICELLO +   SUNNY     58  50  76 CALM      30.21S
RENSSELAER +   MOSUNNY   57  54  88 CALM      30.22S
VALPARAISO     SUNNY     59  50  72 E3        30.22R

$$

LMZ046-743>745-161600-
SOUTHERN LAKE MICHIGAN

STATION/POSITION TIME  TEMP WIND        PRES
                       AIR  DIR/SP/G
                 (UTC) (F)  (DEG/KT/KT) (MB)
MICHIGAN CITY    1500   56  170/  5/  6   N/A

$$

INZ004-005-014>016-021>024-161600-
NORTH CENTRAL INDIANA

CITY           SKY/WX    TMP DP  RH WIND       PRES   REMARKS
GOSHEN         SUNNY     59  46  62 N6        30.20S
LOGANSPORT +   MOSUNNY   55  48  76 NE6       30.22S
PERU/GRISSOM   PTSUNNY   56  55  99 NE6       30.21S
ROCHESTER +    SUNNY     59  50  72 NE6       30.22S
SOUTH BEND     NOT AVBL
WARSAW +       SUNNY     55  48  76 N3        30.21S

$$

INZ006>009-017-018-025>027-161600-
NORTHEAST INDIANA

CITY           SKY/WX    TMP DP  RH WIND       PRES   REMARKS
ANGOLA *+      MOSUNNY   57  48  72 CALM      30.19F
AUBURN +       PTSUNNY   57  48  72 NW3       30.21S
FORT WAYNE     PTSUNNY   56  50  80 NW7       30.21S
HUNTINGTON +   CLOUDY    53  52  96 N5        30.20S

$$

INZ028-029-035-036-043>045-051>053-161600-
WEST CENTRAL INDIANA

CITY           SKY/WX    TMP DP  RH WIND       PRES   REMARKS
GREENCASTLE +  CLOUDY    55  50  82 NE6       30.21F
LAFAYETTE      CLOUDY    56  51  84 N5        30.21S
TERRE HAUTE    CLOUDY    57  52  83 NE3       30.22R

$$

INZ030>032-037>040-046>048-054>057-064-065-161600-
CENTRAL INDIANA

CITY           SKY/WX    TMP DP  RH WIND       PRES   REMARKS
ANDERSON       PTSUNNY   57  54  88 CALM      30.21S
CP ATTERBURY + CLOUDY    55  50  82 N6        30.20F
COLUMBUS       CLOUDY    55  54  94 NE10      30.20F
FRANKFORT +    MOSUNNY   59  50  72 NE6       30.22R
GREENWOOD *+   CLOUDY    55  52  88 NE8       30.21S
INDIANAPOLIS   PTSUNNY   55  49  80 NE6       30.21S
-EAGLE CREEK   MOSUNNY   58  49  72 E7        30.20S
KOKOMO *+      PTSUNNY   57  50  77 N7        30.21S
MARION +       MOSUNNY   56  48  76 NE6       30.21S
MT COMFORT *+  CLOUDY    55  52  88 NE5       30.21S
SHELBYVILLE    CLOUDY    56  51  84 NE5       30.20S
ZIONSVILLE +   PTSUNNY   58  49  71 N3        30.21S

$$

INZ033-034-041-042-049-050-058-059-161600-
EAST CENTRAL INDIANA

CITY           SKY/WX    TMP DP  RH WIND       PRES   REMARKS
MUNCIE         MOSUNNY   58  49  72 NE3       30.20R

$$

INZ060-061-067>069-081>083-085>088-161600-
SOUTHWEST INDIANA

CITY           SKY/WX    TMP DP  RH WIND       PRES   REMARKS
EVANSVILLE     CLOUDY    61  54  77 N9        30.19S
WASHINGTON +   CLOUDY    59  53  79 N13       30.20R

$$

INZ062-063-066-070>080-084-089>092-161600-
SOUTH CENTRAL AND SOUTHEAST INDIANA

CITY           SKY/WX    TMP DP  RH WIND       PRES   REMARKS
BLOOMINGTON    CLOUDY    58  51  78 NE7       30.20S

$$




USA.gov is the U.S. government's official web portal to all federal, state and local government web resources and services.